• Join FlightAware (Why Join?)
  • Login
  • US Flag 
06:37AM EST


 

Airport Tracker/Info


-or-


 

Live Flight TrackerFlight Track Log ✈ EGF4214 ✈ 01-Apr-2013 ✈ CYYZ - KORD

Flight Track Log - Related Links

Times and Time Zones

All times are in EDT time to prevent confusion due to time zone crossing. See the EGF4214 flight status page for this flight to view local times or setup timezone preferences in your user account.

Time Position Orientation Groundspeed Altitude Reporting Facility
EDT Latitude Longitude Course Direction KTS MPH feet Rate Location/Type
05:24PM 43.6833 -79.6333 277° West 150 173 2,100  Level Toronto Center
05:25PM 43.7333 -79.6833 324° Northwest 190 219 4,300 1,920 Climbing Toronto Center
05:26PM 43.6625 -79.8205 281° West  Level FlightAware Approximate
05:26PM 43.7500 -79.7500 289° West 230 265 6,000  Level Toronto Center
05:27PM 43.6774 -79.9248 281° West  Level FlightAware Approximate
05:27PM 43.7500 -79.8167 270° West 220 253 6,200  Level Toronto Center
05:28PM 43.6886 -80.0300 277° West  Level FlightAware Approximate
05:28PM 43.7500 -79.9167 270° West 220 253 8,800  Level Toronto Center
05:29PM 43.6974 -80.1357 277° West  Level FlightAware Approximate
05:29PM 43.7500 -80.0000 270° West 240 276 10,800  Level Toronto Center
05:30PM 43.7043 -80.2633 277° West  Level FlightAware Approximate
05:30PM 43.7500 -80.1000 270° West 250 288 13,000  Level Toronto Center
05:31PM 43.7500 -80.2167 270° West 250 288 14,800 1,620 Climbing Toronto Center
05:32PM 43.7500 -80.3000 270° West 260 299 16,300 1,500 Climbing Toronto Center
05:33PM 43.7500 -80.4167 270° West 280 322 17,900 1,500 Climbing Toronto Center
05:34PM 43.7333 -80.5167 257° West 290 334 19,300 1,500 Climbing Toronto Center
05:35PM 43.7167 -80.6167 257° West 290 334 21,000 1,500 Climbing Toronto Center
05:36PM 43.7000 -80.7333 259° West 300 345 22,400 1,500 Climbing Toronto Center
05:37PM 43.6667 -80.8500 248° West 300 345 24,000 1,500 Climbing Toronto Center
05:38PM 43.6333 -80.9500 245° Southwest 290 334 25,500 1,380 Climbing Toronto Center
05:39PM 43.6167 -81.0667 259° West 290 334 26,800 1,080 Climbing Toronto Center
05:40PM 43.6000 -81.1833 259° West 300 345 27,700 600 Climbing Toronto Center
05:41PM 43.5667 -81.2833 245° Southwest 310 357 28,000 120 Climbing Toronto Center
05:42PM 43.5500 -81.4000 259° West 330 380 28,000  Level Toronto Center
05:43PM 43.5167 -81.5333 251° West 350 403 28,000  Level Toronto Center
05:44PM 43.4833 -81.6833 253° West 370 426 28,000  Level Toronto Center
05:45PM 43.4667 -81.8167 260° West 370 426 28,000  Level Toronto Center
05:46PM 43.4167 -81.9500 243° Southwest 380 437 28,000  Level Toronto Center
05:47PM 43.3833 -82.0833 251° West 380 437 28,000  Level Toronto Center
05:48PM 43.3500 -82.2500 255° West 380 437 28,000  Level Toronto Center
05:49PM 43.3167 -82.3667 249° West 380 437 28,000  Level Toronto Center
05:50PM 43.3000 -82.5167 261° West 380 437 28,000  Level Toronto Center
05:51PM 43.2500 -82.6500 243° Southwest 380 437 28,000  Level Toronto Center
05:52PM 43.2375 -82.7803 263° West 380 437 28,000  Level Cleveland Center
05:53PM 43.1994 -82.9156 249° West 385 443 28,000  Level Cleveland Center
05:54PM 43.1611 -83.0508 249° West 385 443 28,000  Level Cleveland Center
05:55PM 43.1247 -83.1889 250° West 385 443 28,000  Level Cleveland Center
05:56PM 43.0861 -83.3292 249° West 390 449 28,000  Level Cleveland Center
05:57PM 43.0453 -83.4639 248° West 390 449 28,000  Level Cleveland Center
05:58PM 43.0064 -83.5983 248° West 385 443 28,000  Level Cleveland Center
05:59PM 42.9675 -83.7328 248° West 385 443 28,000  Level Cleveland Center
06:00PM 42.9508 -83.8767 261° West 385 443 28,000  Level Cleveland Center
06:01PM 42.9386 -84.0150 263° West 380 437 28,000  Level Cleveland Center
06:03PM 42.9133 -84.2942 263° West 375 432 28,000  Level Cleveland Center
06:04PM 42.9008 -84.4211 262° West 375 432 28,000  Level Cleveland Center
06:05PM 42.8964 -84.4656 262° West 374 430 28,000  Level Chicago Center
06:06PM 42.8792 -84.6350 262° West 376 433 28,000  Level Chicago Center
06:07PM 42.8656 -84.7769 263° West 378 435 28,000  Level Chicago Center
06:08PM 42.8497 -84.9172 261° West 376 433 28,000  Level Chicago Center
06:09PM 42.8358 -85.0603 263° West 379 436 28,000  Level Chicago Center
06:10PM 42.8192 -85.2025 261° West 381 438 28,000  Level Chicago Center
06:11PM 42.8036 -85.3453 262° West 380 437 28,000  Level Chicago Center
06:12PM 42.7850 -85.5147 262° West 377 434 28,000  Level Chicago Center
06:13PM 42.7597 -85.6561 256° West 381 438 28,000 -420 Level Chicago Center
06:14PM 42.7336 -85.7972 256° West 382 440 27,200 -1,560 Descending Chicago Center
06:15PM 42.7089 -85.9378 257° West 380 437 24,800 -2,400 Descending Chicago Center
06:16PM 42.6819 -86.0778 255° West 381 438 22,300 -2,280 Descending Chicago Center
06:17PM 42.6578 -86.2089 256° West 362 417 20,100 -1,140 Descending Chicago Center
06:18PM 42.6350 -86.3350 256° West 347 399 20,000 -60 Descending Chicago Center
06:19PM 42.6100 -86.4639 255° West 352 405 20,000 -1,080 Level Chicago Center
06:20PM 42.5800 -86.6203 255° West 356 410 17,800 -2,160 Descending Chicago Center
06:21PM 42.5561 -86.7489 256° West 352 405 15,600 -2,220 Descending Chicago Center
06:22PM 42.5233 -86.8692 250° West 344 396 13,300 -2,160 Descending Chicago Center
06:23PM 42.4900 -86.9858 249° West 334 384 11,200 -1,620 Descending Chicago Center
06:24PM 42.4589 -87.0981 249° West 320 368 10,000 -780 Descending Chicago Center
06:25PM 42.4311 -87.1967 249° West 281 323 9,700 -720 Descending Chicago Center
06:26PM 42.3383 -87.2247 193° South 286 329 8,600 -1,020 Descending Chicago Center
06:27PM 42.2636 -87.2506 194° South 287 330 7,700 -780 Descending Chicago Center
06:28PM 42.1947 -87.2881 202° Southwest 272 313 7,000 -540 Descending Chicago Center
06:29PM 42.1272 -87.3242 202° Southwest 262 302 6,600 -480 Descending Chicago Center
06:31PM 42.0519 -87.3639 201° Southwest 247 284 6,000 -300 Descending Chicago Center
06:31PM 42.0000 -87.4000 207° Southwest 254 292 6,100  Climbing Chicago TRACON
06:33PM 41.9833 -87.4833 255° West 202 232 6,100 -120 Level Chicago TRACON
06:33PM 41.9833 -87.5500 270° West 207 238 5,900 -840 Descending Chicago TRACON
06:35PM 41.9833 -87.6333 270° West 214 246 4,500 -1,320 Descending Chicago TRACON